Regional Weather Roundup
Issued by NWS Upton, NY

Current Version | Previous Version | Graphics & Text | Print | Product List | Glossary Off
Versions: 1 2 3 4 5 6 7 8 9 10 11 12 13 14 15 16 17 18 19 20 21 22 23 24 25 26 27 28 29 30 31 32 33 34 35 36 37 38 39 40 41 42 43 44 45 46 47 48 49 50

000
ASUS41 KOKX 252208
RWROKX

REGIONAL WEATHER ROUNDUP
NATIONAL WEATHER SERVICE NEW YORK NY
600 PM EDT SUN SEP 25 2016

NOTE: "FAIR" INDICATES FEW OR NO CLOUDS BELOW 12,000 FEET WITH NO
SIGNIFICANT WEATHER AND/OR OBSTRUCTIONS TO VISIBILITY.

NYZ071-072-176-178-NJZ106-104-252300-
NEW YORK CITY METRO AREA

CITY           SKY/WX    TMP DP  RH WIND       PRES   REMARKS
Central Park   CLEAR     66  34  30 N5        30.15S
LaGuardia APRT PTCLDY    70  33  25 W9        30.12S
Kennedy INTL   PTCLDY    68  31  25 N9        30.13S
Newark/Liberty PTCLDY    69  35  28 W8        30.12S
Bronx Bot Gard   N/A     68  36  30 CALM      30.14R
Wall St Helipt CLEAR     73  36  25 CALM      30.13S
Teterboro      CLEAR     69  31  24 N7        30.11S
$$

NYZ177-179-078>081-252300-
LONG ISLAND NEW YORK

CITY           SKY/WX    TMP DP  RH WIND       PRES   REMARKS
Farmingdale    CLEAR     67  32  27 N9        30.12S
MacArthur/ISP  PTCLDY    66  34  30 NW7       30.11S
Shirley        CLEAR     65  38  36 W5        30.12R
Riverhead      NOT AVBL
Westhampton    CLEAR     66  35  31 W8        30.12S
Southampton      N/A     68  43  40 W3        30.07S
Bridgehampton    N/A     61  48  63 CALM      29.96S
East Hampton   FAIR      62  45  53 CALM      30.10R
Montauk          N/A     65  37  35 NW10      30.11R
$$

NYZ052-065-067-252300-
HUDSON VALLEY

CITY           SKY/WX    TMP DP  RH WIND       PRES   REMARKS
White Plains   CLEAR     66  31  27 VRB5      30.12S
Newburgh       CLEAR     68  36  30 VRB5      30.14R
Montgomery     CLEAR     68  35  29 NE5       30.12S
Poughkeepsie   CLEAR     65  33  30 NE7       30.12S
Albany         PTCLDY    64  34  32 NW9       30.13S
$$

NJZ001-105-106-008-010-013-015-019>022-104-252300-
NEW JERSEY

CITY           SKY/WX    TMP DP  RH WIND       PRES   REMARKS
Newark/Liberty PTCLDY    69  35  28 W8        30.12S
Teterboro      CLEAR     69  31  24 N7        30.11S
Caldwell       CLEAR     69  39  33 CALM      30.13S
Morristown     PTCLDY    66  41  39 NW3       30.13S
Somerville     CLEAR     71  33  24 N5        30.11S
Linden         NOT AVBL
Sussex         CLEAR     66  36  32 W5        30.14R
Abdover          N/A     63  43  48 CALM      30.14S
Trenton        CLEAR     70  39  32 CALM      30.13R
Millville      CLEAR     68  46  45 SW3       30.14S
Atlantic City  CLEAR     67  46  47 SE8       30.14R
Wrightstown    CLEAR     69  42  37 NW6       30.11R
Toms River     CLEAR     65  49  56 SE7       30.15R
Belmar         CLEAR     65  45  48 SE6       30.15R
$$

PAZ047>061-062-071-252300-
EASTERN PENNSYLVANIA

CITY           SKY/WX    TMP DP  RH WIND       PRES   REMARKS
Philadelphia   PTCLDY    71  39  31 NW7       30.14R
Allentown      CLEAR     70  39  32 NW3       30.14R
Scranton       CLEAR     65  33  30 NE6       30.16R
$$

CTZ002-004>006-009-010-012-RIZ004-006-007-MAZ004-011-015-252300-
SOUTHERN NEW ENGLAND
 IN CT

CITY           SKY/WX    TMP DP  RH WIND       PRES   REMARKS
Bradley INTL   PTCLDY    63  33  32 N7        30.12S
Hartford       CLEAR     64  33  31 N9G17     30.11R
Danbury        CLEAR     63  32  31 N10       30.14R
Wtrbury/Oxford PTCLDY    63  30  29 N12       30.15R
Bridgeport     CLEAR     68  31  25 NW13      30.11R
Meriden        CLEAR     67  31  26 N12       30.12R
New Haven      CLEAR     65  31  28 N8        30.12R
Chester        FAIR      64  34  32 NW5       30.11R
Groton         CLEAR     66  39  37 NW8       30.10R
Wilimantic     CLEAR     66  33  29 N6        30.11R

 IN RI

CITY           SKY/WX    TMP DP  RH WIND       PRES   REMARKS
Providence     CLEAR     64  31  28 NW10      30.09R
Block Island   CLEAR     63  38  39 NW8       30.10R
Westerly       CLEAR     66  34  30 NW8       30.10R
 IN MA

CITY           SKY/WX    TMP DP  RH WIND       PRES   REMARKS
Boston         PTCLDY    64  31  28 NW13      30.09R
Worcester      CLEAR     59  29  31 N8        30.11R
Westfield      CLEAR     63  35  35 N9        30.12R
Provincetown   CLEAR     60  41  49 N14       30.09R
Nantucket      CLEAR     60  40  47 N8        30.09R
$$

ANZ330-335-338-340-345-350-353-355-252300-
COASTAL MARINE OBSERVATIONS


STATION/POSITION TIME  SKY/WX   TEMP    WIND        PRES    VSBY  WAVE
                                AIR SEA DIR/SP/G                  HT/PER
                 (UTC)          (F)     (DEG/KT/KT) (MB)    (MI)  (FT/S)
NY HARB ENTRANCE 2150            67 72  300/  6/  8 1020.0          3/11
20S FIRE ISLAND  2050            63 69  260/  4/  8 1020.1          3/11
GREAT SOUTH BAY  2115            67 72  320/ 10/ 14   N/A
23 SSW MONTAUK P 2050            63 68  280/ 10/ 12 1019.6          3/10
15 E BARNEGAT LI 2130               71                N/A           3/11
HUDSON CANYON    2050            63 69              1020.4          4/ 9
KINGS POINT      2130            68 73              1019.9
EXECUTION ROCKS  2145            70     340/  8/ 12   N/A
CENTRAL LI SOUND NOT AVBL
EASTERN LI SOUND NOT AVBL
ROBBINS REEF     2130            68     360/  8/ 10 1020.3
$$


>>>>>>>>>>>>>>>>>>>>>>>>>>>> KEY <<<<<<<<<<<<<<<<<<<<<<<<<<<
>                                                          <
>     SKY/WX - Sky Condition/Present Weather               <
>     TMP    - Temperature in Fahrenheit                   <
>     DP     - Dew Point in Fahrenheit                     <
>     RH     - Relative Humidity in Percent                <
>     WIND   - Direction (from) and Speed in MPH           <
>     PRES   - Mean Sea Level Pressure (inches of Hg)      <
>     WCI    - Wind Chill Index                            <
>     VSB    - VISIBILITY IN MILES                         <
>     HX     - HEAT INDEX                                  <
>     TC     - TEMPERATURE IN CELSIUS                      <
>     VRB    - VARIABLE WIND DIRECTION                     <
>                                                          <
>>>>>>>>>>>>>>>>>>>>>>>>>>>> KEY <<<<<<<<<<<<<<<<<<<<<<<<<<<



USA.gov is the U.S. government's official web portal to all federal, state and local government web resources and services.